Location: Unspecified
(0.0000°N, 0.0000°E)
Time: 13:44:22
(UTC+00:00)

Courier 1B - Pass Details

Date: 25 November 2019
Orbit: 963 x 1209 km, 28.3° (Epoch: 08 December)

Event Time Altitude Azimuth Distance (km) Brightness Sun altitude
Rises 08:25:27 0° 328° (NNW) 3,729 10.1 36.6°
Reaches altitude 10° 08:29:45 10° 353° (N) 2,736 9.7 37.6°
Maximum altitude 08:32:56 14° 23° (NNE) 2,444 9.7 38.3°
Drops below altitude 10° 08:36:04 10° 52° (NE) 2,694 10.2 39.0°
Sets 08:40:13 0° 77° (ENE) 3,630 11.0 39.9°
